Weather History for KVOK - November, 2012

Change the Weather History Date:

Sunday, November 11, 2012

  Actual Average Record
Temperature  
Mean Temperature 46 °F -  
Max Temperature 65 °F 42 °F 65 °F (2012)
Min Temperature 27 °F 29 °F 13 °F (2008)
Degree Days  
Heating Degree Days 18    
Moisture  
Dew Point 49 °F    
Average Humidity 88    
Maximum Humidity 100    
Minimum Humidity 50    
Precipitation  
Precipitation 0.69 in - - ()
Sea Level Pressure  
Sea Level Pressure 29.70 in    
Wind  
Wind Speed 11 mph (SW)    
Max Wind Speed 18 mph    
Max Gust Speed 26 mph    
Visibility 6 miles    
Events Rain , Snow , Thunderstorm    
Averages and records for this station are not official NWS values.
T = Trace of Precipitation, MM = Missing Value Source: NWS Daily Summary

Daily Weather History Graph

Daily Weather History Graph

Search for Another Location

Airport or City:

Trip Planner

Search our weather history database for the weather conditions in past years. The results will help you decide how hot, cold, wet, or windy it might be!

Date:

Astronomy

Nov. 11, 2012 Rise Set
Actual Time 6:51 AM CST 4:38 PM CST
Civil Twilight 6:20 AM CST 5:09 PM CST
Nautical Twilight 5:45 AM CST 5:43 PM CST
Astronomical Twilight 5:11 AM CST 6:17 PM CST
Moon 4:01 AM CST (11/11) 3:05 PM CST (11/11)
Length of Visible Light 10h 48m
Length of Day
9h 47m
Waning Crescent, 7% of the Moon is Illuminated
Nov 11
Waning Crescent
Nov 13
New
Nov 20
First Quarter
Nov 28
Full
Dec 6
Last Quarter

Hourly Weather History & Observations

Time (CST) Temp. Windchill Dew Point Humidity Pressure Visibility Wind Dir Wind Speed Gust Speed Precip Events Conditions
12:55 AM 65.3 °F - 46.2 °F 50% 29.69 in 10.0 mi South 16.1 mph 25.3 mph N/A   Scattered Clouds
1:55 AM 65.3 °F - 46.8 °F 51% 29.70 in 10.0 mi South 13.8 mph - N/A Thunderstorm Mostly Cloudy
2:55 AM 64.6 °F - 47.7 °F 54% 29.71 in 10.0 mi South 13.8 mph 20.7 mph N/A   Overcast
3:55 AM 63.5 °F - 48.7 °F 59% 29.72 in 10.0 mi South 12.7 mph 20.7 mph N/A   Scattered Clouds
4:18 AM 62.6 °F - 50.0 °F 63% 29.70 in 10.0 mi SSW 13.8 mph 25.3 mph N/A   Light Drizzle
4:27 AM 62.6 °F - 50.0 °F 63% 29.70 in 10.0 mi South 15.0 mph 24.2 mph N/A   Partly Cloudy
4:55 AM 62.2 °F - 50.4 °F 65% 29.70 in 10.0 mi SSE 12.7 mph - 0.00 in   Partly Cloudy
5:50 AM 60.8 °F - 51.8 °F 72% 29.71 in 10.0 mi South 13.8 mph 26.5 mph N/A Rain Light Rain
5:55 AM 60.1 °F - 52.9 °F 77% 29.71 in 10.0 mi South 11.5 mph 26.5 mph 0.00 in Rain Light Rain
6:16 AM 59.0 °F - 53.6 °F 82% 29.69 in 10.0 mi SSW 8.1 mph - N/A   Partly Cloudy
6:55 AM 58.1 °F - 53.2 °F 84% 29.67 in 10.0 mi SSE 12.7 mph - 0.01 in   Scattered Clouds
7:55 AM 58.8 °F - 53.1 °F 81% 29.70 in 10.0 mi South 9.2 mph - N/A   Scattered Clouds
8:21 AM 59.0 °F - 53.6 °F 82% 29.70 in 10.0 mi South 9.2 mph - N/A   Mostly Cloudy
8:55 AM 60.4 °F - 53.2 °F 77% 29.69 in 10.0 mi South 8.1 mph - N/A   Overcast
8:57 AM 60.8 °F - 53.6 °F 77% 29.69 in 10.0 mi South 10.4 mph - N/A Rain Light Rain
9:19 AM 59.0 °F - 53.6 °F 82% 29.69 in 10.0 mi South 6.9 mph - N/A   Mostly Cloudy
9:21 AM 59.0 °F - 53.6 °F 82% 29.69 in 10.0 mi South 6.9 mph - N/A   Light Drizzle
9:24 AM 59.0 °F - 53.6 °F 82% 29.68 in 10.0 mi South 6.9 mph - N/A   Mostly Cloudy
9:25 AM 59.0 °F - 53.6 °F 82% 29.68 in 10.0 mi South 5.8 mph - N/A   Light Drizzle
9:33 AM 59.0 °F - 53.6 °F 82% 29.67 in 10.0 mi South 5.8 mph - N/A Rain Light Rain
9:55 AM 58.5 °F - 54.3 °F 86% 29.67 in 9.0 mi South 8.1 mph - 0.01 in Rain Light Rain
9:58 AM 59.0 °F - 53.6 °F 82% 29.67 in 7.0 mi SSE 10.4 mph - N/A Rain Light Rain
10:12 AM 57.2 °F - 53.6 °F 88% 29.66 in 5.0 mi SSE 4.6 mph - N/A Rain Rain
10:20 AM 57.2 °F - 55.4 °F 94% 29.67 in 4.0 mi South 6.9 mph - N/A Rain Light Rain
10:31 AM 57.2 °F - 55.4 °F 94% 29.69 in 2.5 mi SSW 6.9 mph - N/A Rain Heavy Rain
10:33 AM 57.2 °F - 53.6 °F 88% 29.69 in 2.0 mi Variable 6.9 mph - N/A Rain Heavy Rain
10:35 AM 57.2 °F - 55.4 °F 94% 29.69 in 1.8 mi SW 5.8 mph - N/A Rain Heavy Rain
10:37 AM 55.4 °F - 55.4 °F 100% 29.69 in 1.5 mi SW 6.9 mph - N/A Rain Heavy Rain
10:41 AM 55.4 °F - 53.6 °F 94% 29.68 in 1.5 mi SSW 3.5 mph - N/A Rain , Thunderstorm Thunderstorms and Rain
10:44 AM 55.4 °F - 53.6 °F 94% 29.67 in 1.8 mi Variable 5.8 mph - N/A Rain , Thunderstorm Thunderstorms and Rain
10:46 AM 55.4 °F - 53.6 °F 94% 29.66 in 2.0 mi Variable 3.5 mph - N/A Rain , Thunderstorm Thunderstorms and Rain
10:47 AM 55.4 °F - 53.6 °F 94% 29.67 in 2.5 mi South 4.6 mph - N/A Rain , Thunderstorm Thunderstorms and Rain
10:51 AM 55.4 °F - 53.6 °F 94% 29.67 in 3.0 mi South 6.9 mph - N/A Rain , Thunderstorm Thunderstorms and Rain
10:55 AM 55.9 °F - 54.5 °F 95% 29.68 in 3.0 mi South 6.9 mph - 0.27 in Rain , Thunderstorm Thunderstorms and Rain
10:56 AM 55.4 °F - 55.4 °F 100% 29.68 in 3.0 mi South 6.9 mph - N/A Rain Rain
11:00 AM 55.4 °F - 53.6 °F 94% 29.69 in 4.0 mi South 8.1 mph - N/A Rain Rain
11:11 AM 55.4 °F - 53.6 °F 94% 29.69 in 2.5 mi Variable 4.6 mph - N/A Rain Rain
11:18 AM 55.4 °F - 53.6 °F 94% 29.67 in 2.5 mi Variable 3.5 mph - N/A Rain Rain
11:36 AM 55.4 °F - 53.6 °F 94% 29.65 in 3.0 mi South 5.8 mph - N/A Rain Light Rain
11:44 AM 55.4 °F - 55.4 °F 100% 29.65 in 6.0 mi SSE 4.6 mph - N/A Rain Rain
11:55 AM 55.4 °F - 54.3 °F 96% 29.66 in 5.0 mi South 4.6 mph - 0.23 in Rain Light Rain
12:24 PM 55.4 °F - 55.4 °F 100% 29.64 in 10.0 mi SSW 4.6 mph - N/A Rain Light Rain
12:27 PM 55.4 °F - 53.6 °F 94% 29.65 in 8.0 mi West 12.7 mph - N/A Rain Light Rain
12:28 PM 55.4 °F - 53.6 °F 94% 29.65 in 6.0 mi West 12.7 mph - N/A Rain Light Rain
12:29 PM 55.4 °F - 53.6 °F 94% 29.65 in 5.0 mi West 15.0 mph 19.6 mph N/A Rain Light Rain
12:31 PM 55.4 °F - 53.6 °F 94% 29.66 in 3.0 mi West 15.0 mph 19.6 mph N/A Rain Heavy Rain
12:32 PM 55.4 °F - 53.6 °F 94% 29.66 in 2.5 mi West 12.7 mph 19.6 mph N/A Rain Heavy Rain
12:33 PM 53.6 °F - 51.8 °F 94% 29.66 in 2.0 mi WNW 11.5 mph 19.6 mph N/A Rain Heavy Rain
12:34 PM 53.6 °F - 51.8 °F 94% 29.66 in 1.8 mi WNW 11.5 mph 19.6 mph N/A Rain Heavy Rain
12:35 PM 53.6 °F - 51.8 °F 94% 29.66 in 1.5 mi WNW 11.5 mph 19.6 mph N/A Rain Heavy Rain
12:36 PM 53.6 °F - 51.8 °F 94% 29.67 in 1.5 mi WNW 12.7 mph - N/A Rain Heavy Rain
12:37 PM 53.6 °F - 51.8 °F 94% 29.66 in 1.2 mi WNW 12.7 mph - N/A Rain Heavy Rain
12:39 PM 51.8 °F - 51.8 °F 100% 29.66 in 1.5 mi WNW 12.7 mph - N/A Rain Heavy Rain
12:40 PM 51.8 °F - 51.8 °F 100% 29.66 in 1.5 mi WNW 12.7 mph - N/A Rain Heavy Rain
12:42 PM 51.8 °F - 50.0 °F 94% 29.65 in 1.5 mi WNW 9.2 mph - N/A Rain Heavy Rain
12:44 PM 51.8 °F - 50.0 °F 94% 29.64 in 1.8 mi WNW 10.4 mph - N/A Rain Heavy Rain
12:45 PM 51.8 °F - 50.0 °F 94% 29.64 in 2.0 mi WNW 10.4 mph - N/A Rain Heavy Rain
12:47 PM 51.8 °F - 50.0 °F 94% 29.64 in 2.5 mi WNW 10.4 mph - N/A Rain Rain
12:48 PM 51.8 °F - 50.0 °F 94% 29.65 in 3.0 mi WNW 11.5 mph - N/A Rain Light Rain
12:55 PM 50.5 °F - 49.3 °F 95% 29.65 in 9.0 mi WNW 10.4 mph - 0.17 in Rain Light Rain
1:04 PM 50.0 °F - 48.2 °F 94% 29.65 in 10.0 mi WNW 10.4 mph - N/A Rain Light Rain
1:21 PM 50.0 °F - 48.2 °F 94% 29.65 in 10.0 mi WNW 6.9 mph - N/A Rain Light Rain
1:32 PM 50.0 °F - 48.2 °F 94% 29.67 in 8.0 mi West 11.5 mph - N/A Rain Rain
1:35 PM 48.2 °F - 48.2 °F 100% 29.67 in 7.0 mi WNW 16.1 mph - N/A Rain Light Rain
1:55 PM 46.4 °F 41.1 °F 46.4 °F 100% 29.67 in 7.0 mi WNW 11.5 mph - N/A Rain Light Rain
2:55 PM 44.6 °F 40.7 °F 42.8 °F 93% 29.67 in 7.0 mi West 6.9 mph - N/A Rain Light Rain
3:55 PM 42.8 °F 35.4 °F 41.0 °F 93% 29.70 in 6.0 mi WNW 15.0 mph - N/A Rain Light Rain
4:55 PM 39.2 °F 32.0 °F 37.4 °F 93% 29.73 in 7.0 mi West 11.5 mph - N/A Rain Light Rain
5:55 PM 35.6 °F 25.9 °F 33.8 °F 93% 29.79 in 10.0 mi West 16.1 mph - N/A   Light Drizzle
6:55 PM 33.8 °F 22.8 °F 32.0 °F 93% 29.82 in 7.0 mi West 18.4 mph - N/A   Light Drizzle
7:02 PM 33.8 °F 24.3 °F 32.0 °F 93% 29.80 in 7.0 mi West 13.8 mph 20.7 mph N/A Snow Light Drizzle
7:55 PM 32.0 °F 21.6 °F 30.2 °F 93% 29.83 in 7.0 mi West 15.0 mph - N/A Snow Light Drizzle
8:32 PM 32.0 °F 20.8 °F 28.4 °F 87% 29.85 in 10.0 mi West 17.3 mph - N/A   Overcast
8:55 PM 32.0 °F 21.2 °F 28.4 °F 87% 29.86 in 10.0 mi West 16.1 mph 21.9 mph N/A   Overcast
9:55 PM 30.2 °F 18.1 °F 26.6 °F 86% 29.91 in 10.0 mi West 18.4 mph 23.0 mph N/A   Overcast
10:55 PM 28.0 °F 17.0 °F 23.0 °F 81% 29.92 in 10.0 mi WNW 13.8 mph 21.9 mph N/A   Overcast
11:55 PM 27.5 °F 16.8 °F 21.9 °F 80% 29.94 in 10.0 mi West 12.7 mph - N/A   Overcast